This is the latest recevied weather packets stored in our database for station/object IW1QQG-13. If no packets are shown the sender has not sent any weather packets the latest 10 day(s).
| Time | Temp. | Humidity | Pressure | Rain* | Wind** | Luminosity | Snow |
|---|---|---|---|---|---|---|---|
| 1777674628 | 15° C | 52% | 1025.4 hPa | 0 mm | - | 0 W/m² | - |
| 1777674029 | 15° C | 50% | 1025.4 hPa | 0 mm | - | 0 W/m² | - |
| 1777673428 | 15.56° C | 51% | 1025.4 hPa | 0 mm | - | 0 W/m² | - |
| 1777672832 | 15° C | 54% | 1025.4 hPa | 0 mm | - | 0 W/m² | - |
| 1777672228 | 15° C | 54% | 1025.1 hPa | 0 mm | - | 0 W/m² | - |
| 1777671627 | 15.56° C | 50% | 1025.1 hPa | 0 mm | - | 0 W/m² | - |
| 1777671027 | 15.56° C | 48% | 1025.1 hPa | 0 mm | - | 0 W/m² | - |
| 1777670427 | 16.11° C | 47% | 1025.1 hPa | 0 mm | - | 0 W/m² | - |
| 1777669827 | 16.11° C | 49% | 1025.1 hPa | 0 mm | - | 0 W/m² | - |
| 1777669227 | 15° C | 52% | 1025.1 hPa | 0 mm | - | 0 W/m² | - |
| 1777668627 | 15.56° C | 50% | 1025.1 hPa | 0 mm | - | 0 W/m² | - |
| 1777668025 | 15.56° C | 51% | 1024.7 hPa | 0 mm | - | 0 W/m² | - |
| 1777667425 | 15.56° C | 51% | 1025.1 hPa | 0 mm | - | 0 W/m² | - |
| 1777666825 | 14.44° C | 57% | 1024.7 hPa | 0 mm | - | 0 W/m² | - |
| 1777666225 | 14.44° C | 59% | 1024.7 hPa | 0 mm | - | 0 W/m² | - |
| 1777665625 | 15° C | 59% | 1024.4 hPa | 0 mm | - | 0 W/m² | - |
| 1777665025 | 15° C | 58% | 1024.4 hPa | 0 mm | - | 0 W/m² | - |
| 1777664425 | 15° C | 60% | 1024.4 hPa | 0 mm | - | 0 W/m² | - |
| 1777663826 | 15° C | 60% | 1024 hPa | 0 mm | - | 0 W/m² | - |
| 1777663225 | 15° C | 60% | 1024 hPa | 0 mm | - | 0 W/m² | - |
| 1777662625 | 15° C | 58% | 1024 hPa | 0 mm | - | 0 W/m² | - |
| 1777662026 | 15° C | 66% | 1024 hPa | 0 mm | - | 0 W/m² | - |
| 1777661425 | 15° C | 65% | 1023.7 hPa | 0 mm | - | 0 W/m² | - |
| 1777660825 | 15.56° C | 62% | 1023.7 hPa | 0 mm | - | 1 W/m² | - |
| 1777660225 | 15° C | 69% | 1023.7 hPa | 0 mm | - | 3 W/m² | - |
* Rain latest hour (hover to see other rain measurements)
** Current wind speed in m/s (hover to see current wind gust speed)